Tracking 17142 objects as of 27-May-2015
HD Live streaming from Space Station

INTELSAT 26 (JCSAT 4)

Track INTELSAT 26 (JCSAT 4) now!
INTELSAT 26 (JCSAT 4) is classified as:


NORAD ID: 24732
Int'l Code: 1997-007A
Perigee: 35,772.0 km
Apogee: 35,814.5 km
Inclination: 6.2 °
Period: 1,436.1 minutes
Semi major axis: 42164 km
RCS: 25.1785 m2 (large)
Launch date: February 17, 1997
Source: International Telecommunications Satellite Organization (ITSO)

12 C-band, 12 Ku-band; relay voice, data, television signals via Ku-band to eastern Asia, Australia, New Zealand, India; via C-band to eastern and southern Asia and Hawaii. Digital TV.
Your satellite tracking list
Your tracking list is empty





NASA's NSSDC Master Catalog

Two Line Element Set (TLE):
1 24732U 97007A   15146.93241661 -.00000011  00000-0  00000+0 0  9992
2 24732 006.2281 055.9939 0005045 352.6573 236.9919 01.00273492 66812

Source of the keplerian elements: AFSPC

N2YO: 327